Regional Weather Roundup
Issued by NWS

Home | Current Version | Previous Version | Graphics & Text | Print | Product List | Glossary On
Versions: 1 2 3 4 5 6 7 8 9 10 11 12 13 14 15 16 17 18 19 20 21 22 23 24 25 26 27 28 29 30 31 32 33 34 35 36 37 38 39 40 41 42 43 44 45 46 47 48 49 50
004
ASUS43 KLMK 211902
RWRKY
KENTUCKY REGIONAL WEATHER ROUNDUP
NATIONAL WEATHER SERVICE LOUISVILLE KY
300 PM EDT SAT OCT 21 2017

NOTE "FAIR" INDICATES FEW OR NO CLOUDS BELOW 12,000 FEET
WITH NO SIGNIFICANT WEATHER AND/OR OBSTRUCTIONS TO VISIBILITY.

KYZ001>023-026-027-061>063-070>075-212000-
WESTERN AND SOUTH CENTRAL KENTUCKY

CITY           SKY/WX    TMP DP  RH WIND       PRES   REMARKS
PADUCAH        PTSUNNY   80  53  39 S10       30.10F
HENDERSON      MOSUNNY   77  56  48 S8        30.14F
OWENSBORO      CLOUDY    77  53  43 SE15      30.16F
HOPKINSVILLE   SUNNY     77  52  41 S3        30.16F
BOWLING GREEN  CLOUDY    75  53  46 S9        30.20S
GLASGOW        CLOUDY    76  46  33 S8        30.21S
$$

KYZ024-025-028>034-038-045-046-053-212000-
NORTH CENTRAL KENTUCKY

CITY           SKY/WX    TMP DP  RH WIND       PRES   REMARKS
LOUISVILLE/SDF PTSUNNY   75  51  43 S8        30.20S
LOUISVILLE/LOU MOSUNNY   74  53  48 S8        30.21F
FORT KNOX      MOSUNNY   74  50  41 S8        30.19F
$$

KYZ035>037-039>044-047>052-055>060-089>105-212000-
NORTHEAST KENTUCKY

CITY           SKY/WX    TMP DP  RH WIND       PRES   REMARKS
LEXINGTON      MOSUNNY   74  45  35 S8        30.24F
COVINGTON      CLOUDY    71  50  47 SW9       30.22F
FRANKFORT      MOSUNNY   75  45  34 S9        30.22F
$$

KYZ054-064>069-076>088-106>120-212000-
SOUTHEAST KENTUCKY

CITY           SKY/WX    TMP DP  RH WIND       PRES   REMARKS
JACKSON        MOSUNNY   74  50  42 CALM      30.27F
LONDON         SUNNY     74  45  35 S6        30.27F
SOMERSET       MOSUNNY   73  46  38 S6        30.26F
MIDDLESBORO    MOSUNNY   75  50  40 CALM      30.27F
MONTICELLO     CLEAR     77  48  35 SE8       30.25F
$$





USA.gov is the U.S. government's official web portal to all federal, state and local government web resources and services.